Regional Weather Roundup
Issued by NWS

Home | Current Version | Previous Version | Text Only | Print | Product List | Glossary On
Versions: 1 2 3 4 5 6 7 8 9 10 11 12 13 14 15 16 17 18 19 20 21 22 23 24 25 26 27 28 29 30 31 32 33 34 35 36 37 38 39 40 41 42 43 44 45 46 47 48 49 50
000
ASUS44 KMEG 190910
RWRTN
TENNESSEE HOURLY STATE WEATHER ROUNDUP
NATIONAL WEATHER SERVICE MEMPHIS TN
300 AM CST SUN NOV 19 2017

TNZ002-004-019-021-049-052-054-088>092-191000-
WEST TENNESSEE

CITY           SKY/WX    TMP DP  RH WIND       PRES   REMARKS
MEMPHIS INTL   CLEAR     43  34  70 NW10      30.14R
NWS MEMPHIS      N/A     40 N/A N/A MISG        N/A
JACKSON        PTCLDY    41  34  76 W7        30.11R
DYERSBURG      CLEAR     41  34  76 W6        30.12R
COVINGTON      PTCLDY    41  34  75 NW8       30.12S
UNION CITY     MOCLDY    41  34  75 NW8       30.09R
BOLIVAR        CLEAR     39  34  81 W5        30.10R
PARIS          PTCLDY    37  34  87 CALM      30.06R
HUNTINGDON     CLEAR     39  34  81 VRB5      30.07R
LEXINGTON      CLEAR     39  34  81 W3        30.08R
SELMER         CLEAR     39  34  81 W6        30.09R WCI  35
SAVANNAH       CLEAR     41  36  81 CALM      30.08R
$$

TNZ008-025-027-028-033-062-065-066-191000-
NORTH MIDDLE TENNESSEE

CITY           SKY/WX    TMP DP  RH WIND       PRES   REMARKS
NASHVILLE      CLOUDY    44  31  60 NW13      30.04R
PORTLAND       CLOUDY    41  34  75 NW6G14    30.01R
CLARKSVILLE    CLOUDY    41  32  70 NW10      30.05R
SMYRNA         CLOUDY    43  33  68 NW10      30.04R
COOKEVILLE     CLOUDY    41  34  75 NW5       29.97S
GALLATIN       CLOUDY    43  32  65 NW10      30.04R
CROSSVILLE     CLOUDY    37  31  78 NW13G18   29.94S WCI  29
$$

TNZ061-075-076-078-094-096-097-191000-
SOUTH MIDDLE TENNESSEE

CITY           SKY/WX    TMP DP  RH WIND       PRES   REMARKS
FAYETTEVILLE   CLOUDY    45  36  70 NW9       30.01R
TULLAHOMA      CLOUDY    41  34  75 NW8       30.00R
WINCHESTER     CLOUDY    43  36  75 NW7       30.00F
MCMINNVILLE    CLOUDY    41  36  81 W3        29.99S
COLUMBIA       CLOUDY    43  34  70 VRB6G12   30.03R
SHELBYVILLE    CLOUDY    43  34  70 NW13      30.02R
$$

TNZ017-018-042-046-047-191000-
NORTHEAST TENNESSEE

CITY           SKY/WX    TMP DP  RH WIND       PRES   REMARKS
TRI CITIES     LGT RAIN  43  41  93 W10       29.83R
ELIZABETHTON   CLOUDY    45  39  81 VRB7      29.81R
$$

TNZ012-013-036-069-073-074-191000-
CENTRAL EAST TENNESSEE

CITY           SKY/WX    TMP DP  RH WIND       PRES   REMARKS
KNOXVILLE      CLOUDY    43  40  89 W10       29.92R
OAK RIDGE      CLOUDY    44  37  76 W7        29.95R
DOWNTOWN KNOXV CLOUDY    45  37  76 VRB6      29.94R
GATLINBURG     CLOUDY    43  39  87 NW8G16    29.92R
MORRISTOWN     CLOUDY    41  36  81 NW9G17    29.90R
$$

TNZ083-085-099-191000-
SOUTHEAST TENNESSEE

CITY           SKY/WX    TMP DP  RH WIND       PRES   REMARKS
CHATTANOOGA    CLOUDY    45  34  65 NW12G23   29.99R
$$

SKY/WX REPORTED AS FAIR MEANS FEW OR NO CLOUDS BELOW
12 THOUSAND FEET.





USA.gov is the U.S. government's official web portal to all federal, state and local government web resources and services.